Home   Weather   Pabna   Past weeks
Flag for Bangladesh

Past Weather in Pabna, Bangladesh — Yesterday and Last 2 Weeks

Now
55 °F

Cool.


Feels Like: 53 °F
Forecast: 74 / 58 °F
Wind: 8 mph from Northwest

Location: Lucknow / Amausi

Current Time: Jan 19, 2020 at 7:53:40 am

Latest Report: Jan 19, 2020 at 7:00 am


Visibility: 1 mi

Pressure: 30.04 "Hg

Humidity: 94%

Dew Point: 54 °F

Location of PabnaLocation

Past Weather in Pabna — Graph

°F

Pabna Temperature Yesterday

Maximum temperature yesterday: 57 °F (at 12:00 am)
Minimum temperature yesterday: 55 °F (at 1:30 am)
Average temperature yesterday: 57 °F

High & Low Weather Summary for the Past Weeks

 TemperatureHumidityPressure
High72 °F (Jan 6, 3:00 pm)100% (Jan 5, 11:00 pm)30.18 "Hg (Jan 5, 11:00 pm)
Low41 °F (Jan 11, 3:30 am)44% (Jan 6, 3:00 pm)29.89 "Hg (Jan 13, 4:30 am)
Average56 °F90%30.02 "Hg
* Reported Jan 4 6:30 am — Jan 19 6:30 am, Pabna. Weather by CustomWeather, © 2020

Note: Actual official high and low records may vary slightly from our data, if they occured in-between our weather recording intervals... More about our weather records

Pabna Weather History for the Previous 24 Hours

Scroll right to see more
 ConditionsComfort  
Time TempWeatherWind HumidityBarometerVisibility
6:30 am
Sun, Jan 19
55 °FCool.8 mph94%30.04 "Hg1 mi
6:00 am55 °FCool.6 mph94%30.04 "Hg1 mi
5:30 am55 °FCool.6 mph94%30.01 "Hg1 mi
5:00 am55 °FCool.3 mph94%30.01 "Hg1 mi
4:30 am55 °FCool.3 mph94%30.01 "Hg1 mi
4:00 am55 °FCool.3 mph94%30.04 "Hg1 mi
3:30 am55 °FCool.5 mph94%30.04 "Hg1 mi
2:30 am55 °FCool.2 mph94%30.04 "Hg1 mi
2:00 am57 °FCool.3 mph94%30.04 "Hg1 mi
1:30 am57 °FCool.6 mph94%30.04 "Hg1 mi
1:00 am57 °FCool.2 mph94%30.04 "Hg1 mi
12:30 am57 °FCool.No wind94%30.07 "Hg1 mi
12:00 am57 °FCool.No wind94%30.07 "Hg1 mi
11:30 pm
Sat, Jan 18
57 °FCool.No wind94%30.07 "Hg1 mi
11:00 pm57 °FCool.2 mph94%30.07 "Hg1 mi
10:30 pm57 °FCool.2 mph94%30.07 "Hg1 mi
10:00 pm57 °FCool.2 mph94%30.07 "Hg1 mi
9:30 pm57 °FCool.2 mph94%30.07 "Hg1 mi
9:00 pm57 °FCool.2 mph94%30.07 "Hg1 mi
8:00 pm57 °FCool.2 mph94%30.04 "Hg1 mi
7:30 pm57 °FCool.2 mph94%30.04 "Hg1 mi
7:00 pm57 °FFog.2 mph94%30.04 "Hg1 mi
6:30 pm57 °FFog.7 mph100%30.04 "Hg1 mi
6:00 pm57 °FFog.3 mph100%30.01 "Hg1 mi
5:30 pm57 °FFog.2 mph100%30.01 "Hg1 mi
5:00 pm57 °FFog.2 mph100%30.04 "Hg1 mi
4:30 pm57 °FFog.2 mph94%30.04 "Hg1 mi
3:00 pm57 °FFog.2 mph100%30.04 "Hg1 mi
1:00 pm57 °FCool.2 mph100%30.09 "Hg1 mi
11:00 am57 °FCool.No wind100%30.12 "Hg0 mi
10:30 am57 °FCool.No wind100%30.12 "Hg0 mi
9:30 am55 °FCool.No wind100%30.09 "Hg0 mi
9:00 am55 °FCool.2 mph100%30.09 "Hg0 mi
8:30 am55 °FCool.No wind100%30.07 "Hg0 mi
8:00 am55 °FCool.No wind100%30.07 "Hg0 mi
7:30 am55 °FCool.No wind100%30.04 "Hg0 mi
Weather by CustomWeather, © 2020

See weather overview

Advertising